Flag for United Kingdom Weather past 2 weeks in Loughton, England, United Kingdom

Now
46 °F

Cool.


Feels Like: 44 °F
Forecast: 43 / 57 °F
Wind: 5 mph from Southeast

Location: Gravesend-Broadness

Current Time: Mar 28, 2015 at 5:03:43 AM

Latest Report: Mar 28, 2015 at 4:00 AM


Visibility: N/A

Pressure: 30.01 "Hg

Humidity: 92%

Dew point: 44 °F

Location of LoughtonLocation

Historic Weather in Loughton — Graph

°F

Loughton temperature yesterday

Maximum temperature yesterday: 55 °F (at 4:00 PM)
Minimum temperature yesterday: 41 °F (at 6:00 AM)
Average temperature yesterday: 47 °F

Past Weeks' High & Low Weather Summary

 TemperatureHumidityPressure
High55 °F (Mar 27, 4:00 PM)96% (Mar 17, 6:00 AM)30.52 "Hg (Mar 17, 6:00 AM)
Low29 °F (Mar 23, 2:00 AM)41% (Mar 27, 2:00 PM)29.55 "Hg (Mar 26, 9:00 AM)
Average44 °F76%30.18 "Hg
* Reported Mar 13 4:00 AM — Mar 28 3:00 AM, Loughton, Weather by CustomWeather, © 2015

Note: Actual official high and low records may vary slightly from our data, if they occured in-between our weather recording intervals... More about our weather records

Advertising

Loughton weather history for previous 24 hours

 ConditionsComfort  
Time TempWeatherWind HumidityBarometerVisibility
3:00 AM
Sat, Mar 28
46 °FCool.5 mph90%30.04 "HgN/A
2:00 AM46 °FCool.8 mph88%30.07 "HgN/A
1:00 AM44 °FQuite cool.3 mph88%30.10 "HgN/A
12:00 AM45 °FQuite cool.7 mph87%30.11 "HgN/A
11:00 PM
Fri, Mar 27
44 °FQuite cool.8 mph84%30.14 "HgN/A
10:00 PM44 °FQuite cool.7 mph79%30.14 "HgN/A
8:00 PM46 °FCool.10 mph70%30.14 "HgN/A
7:00 PM48 °FCool.7 mph68%30.14 "HgN/A
6:00 PM50 °FCool.6 mph53%30.13 "HgN/A
5:00 PM54 °FCool.6 mph46%30.12 "HgN/A
4:00 PM55 °FRefreshingly cool.5 mph42%30.12 "HgN/A
3:00 PM53 °FCool.9 mph41%30.13 "HgN/A
2:00 PM53 °FCool.8 mph41%30.13 "HgN/A
1:00 PM52 °FCool.8 mph45%30.14 "HgN/A
12:00 PM49 °FCool.6 mph51%30.13 "HgN/A
11:00 AM49 °FCool.9 mph56%30.14 "HgN/A
10:00 AM47 °FCool.10 mph62%30.13 "HgN/A
9:00 AM45 °FQuite cool.9 mph70%30.12 "HgN/A
8:00 AM42 °FQuite cool.13 mph75%30.12 "HgN/A
7:00 AM42 °FQuite cool.13 mph76%30.10 "HgN/A
6:00 AM41 °FQuite cool.14 mph76%30.08 "HgN/A
5:00 AM41 °FQuite cool.12 mph75%30.04 "HgN/A
Weather by CustomWeather, © 2015

See weather overviewHow to use our weather pages